Location: Góry Miechowskie
(50.3599°N, 20.1803°E)
Time: 07:34:33
(UTC+00:00)

A-11 Canister half - Pass Details

Date: 18 September 2024
Orbit: 1524 x 1683 km, 47.3° (Epoch: 12 October)

Event Time Altitude Azimuth Distance (km) Brightness Sun altitude
Rises 17:51:11 0° 288° (WNW) 4,810 13.9 -11.1°
Reaches altitude 10° 17:54:34 10° 280° (W) 3,845 12.6 -11.7°
Maximum altitude 18:03:09 36° 219° (SW) 2,407 10.2 -13.0°
Drops below altitude 10° 18:11:56 10° 158° (SSE) 3,924 10.7 -14.3°
Enters shadow 18:14:01 - 153° (SSE) 4,509 11.0 -14.6°
